Tracking 35274 objects as of 10-Sep-2026
HD Live streaming from Space Station
objects crossing your sky now

STARLINK-6038

Track STARLINK-6038 now!
10-day predictions
STARLINK-6038 is classified as:


NORAD ID: 56317
Int'l Code: 2023-058A
Launch date: April 27, 2023
Source: United States (US)
Launch site: AIR FORCE WESTERN TEST RANGE (AFWTR)
Your satellite tracking list
Your tracking list is empty




NASA's NSSDC Master Catalog

Two Line Element Set (TLE):
1 56317U 23058A   26252.92315145  .00000146  00000-0  68477-5 0  9995
2 56317  97.2840 249.8183 0001735  95.5976 264.5465 15.33433346185669
Source of the keplerian elements: AFSPC